Regional Weather Roundup
Issued by NWS

Home | Current Version | Previous Version | Graphics & Text | Print | Product List | Glossary On
Versions: 1 2 3 4 5 6 7 8 9 10 11 12 13 14 15 16 17 18 19 20 21 22 23 24 25 26 27 28 29 30 31 32 33 34 35 36 37 38 39 40 41 42 43 44 45 46 47 48 49 50
000
ASUS45 KPSR 251300
RWRAZ

ARIZONA REGIONAL HOURLY WEATHER ROUNDUP
NATIONAL WEATHER SERVICE PHOENIX AZ
600 AM MST SAT APR 25 2015

NOTE: FAIR INDICATES FEW OR NO CLOUDS BELOW 12,000 FEET WITH NO
SIGNIFICANT WEATHER AND/OR OBSTRUCTIONS TO VISIBILITY.

AZZ001>003-036-251400-
NORTHWEST ARIZONA

CITY           SKY/WX    TMP DP  RH WIND       PRES   REMARKS
KINGMAN        CLEAR     47  38  71 SE7       29.86R
$$

AZZ004>008-015-016-018-251400-
NORTH CENTRAL ARIZONA

CITY           SKY/WX    TMP DP  RH WIND       PRES   REMARKS
GRAND CANYON   CLOUDY    41  36  82 S8        29.94F
WILLIAMS       MOCLDY    41  36  81 S10G16    30.01S
PRESCOTT       PTCLDY    46  39  76 SE6       29.94S
FLAGSTAFF      NOT AVBL
PAYSON         CLOUDY    46  43  87 CALM      29.99R
PAGE           CLOUDY    53  40  61 CALM      29.85S
$$

AZZ009>014-017-251400-
NORTHEAST ARIZONA

CITY           SKY/WX    TMP DP  RH WIND       PRES   REMARKS
WINSLOW        NOT AVBL
SAINT JOHNS    PTCLDY    40  30  67 SE3       29.97R
WINDOW ROCK    CLOUDY    41  36  82 S5        29.98S
SHOW LOW       MOCLDY    39  34  81 S10       29.99R WCI  32
$$

AZZ023-251400-
GREATER PHOENIX AREA

CITY           SKY/WX    TMP DP  RH WIND       PRES   REMARKS
PHOENIX        MOCLDY    61  42  49 E7        29.88R
DEER VALLEY    PTCLDY    60  48  64 CALM      29.89R
SCOTTSDALE     MOCLDY    60  41  49 S3        29.91R
MESA-FALCON    MOCLDY    57  39  51 E10       29.89
MESA-GATEWAY   PTCLDY    55  39  54 E7        29.92R
CHANDLER       MOCLDY    55  43  62 E7        29.90
$$

AZZ027-028-251400-
SOUTHWEST MARICOPA COUNTY AND PINAL COUNTY

CITY           SKY/WX    TMP DP  RH WIND       PRES   REMARKS
CASA GRANDE    CLEAR     52  34  50 CALM      29.90R
$$

AZZ503-504-507>509-251400-
SOUTHEAST ARIZONA

CITY           SKY/WX    TMP DP  RH WIND       PRES   REMARKS
TUCSON         CLEAR     53  35  50 SE6       29.97R
RYAN FIELD       N/A     54  36  50 E8        29.96
NOGALES        CLEAR     44  35  70 CALM      29.98S
SAFFORD        CLEAR     47  35  63 CALM      29.94R
$$

AZZ020-021-025-026-031-251400-
SOUTHWEST ARIZONA

CITY           SKY/WX    TMP DP  RH WIND       PRES   REMARKS
YUMA           CLEAR     62  44  51 N3        29.87R
$$

CAZ031-033-041-043-047-048-061-251400-
SOUTHERN CALIFORNIA

CITY           SKY/WX    TMP DP  RH WIND       PRES   REMARKS
DOWNTOWN L.A.  CLOUDY    58  50  75 CALM      29.97S
L.A. AIRPORT   MOCLDY    57  51  80 CALM      29.98S
SAN DIEGO      CLOUDY    61  52  72 W10       30.00S
BURBANK        CLOUDY    56  49  77 S3        29.96S
ONTARIO        CLOUDY    56  50  80 SW6       29.96S
RIVERSIDE      CLOUDY    56  50  80 CALM      29.97S
PALM SPRINGS   CLEAR     61  45  55 CALM      29.86R
EL CENTRO NAS  CLEAR     63  45  51 SW18      29.89R
IMPERIAL       CLEAR     61  46  57 W10       29.87R
BLYTHE         CLEAR     58  48  69 E5        29.85R
$$

NVZ020-UTZ003-251400-
SOUTHERN NEVADA-UTAH

CITY           SKY/WX    TMP DP  RH WIND       PRES   REMARKS
LAS VEGAS      NOT AVBL
SALT LAKE CITY MOCLDY    43  38  82 CALM      29.81F
$$

NMZ009-TXZ055-251400-
NEW MEXICO-WEST TEXAS

CITY           SKY/WX    TMP DP  RH WIND       PRES   REMARKS
ALBUQUERQUE    PTCLDY    42  35  76 SE8       29.97S
EL PASO        CLEAR     55  30  38 SW7       29.97R
$$


........................KEY........................
SKY/WX - SKY CONDITION/WEATHER
TMP    - TEMPERATURE IN FAHRENHEIT
DP     - DEW POINT IN FAHRENHEIT
RH     - RELATIVE HUMIDITY IN PERCENT
WIND   - DIRECTION AND SPEED IN MILES PER HOUR (MPH)
VRB    - VARIABLE WIND DIRECTION
PRES   - MEAN SEA LEVEL PRESSURE IN INCHES OF MERCURY
         F - FALLING PRESSURE   R - RISING PRESSURE
         S - STEADY PRESSURE
VSB    - VISIBILITY IN MILES
HX     - HEAT INDEX IN FAHRENHEIT
WCI    - WIND CHILL INDEX IN FAHRENHEIT
TC     - TEMPERATURE IN CELSIUS WHICH IS ALSO KNOWN AS
         TEMPERATURE IN CENTIGRADE
AFB    - AIR FORCE BASE
         LUKE AFB IS LUKE AIR FORCE BASE
         DAVIS-MONTHAN IS DAVIS-MONTHAN AIR FORCE BASE
NAS    - NAVAL AIR STATION
         EL CENTRO NAS IS EL CENTRO NAVAL AIR STATION
N/A    - NOT AVAILABLE




USA.gov is the U.S. government's official web portal to all federal, state and local government web resources and services.